Weather History for Richmond, VA

Change the Weather History Date:

Thursday, May 8, 2014

  Actual Average Record
Temperature  
Mean Temperature 77 °F 64 °F  
Max Temperature 91 °F 76 °F 92 °F (1936)
Min Temperature 62 °F 53 °F 37 °F (1974)
Degree Days  
Heating Degree Days 0 3  
Month to date heating degree days 8 30  
Since 1 July heating degree days 3768 3722  
Cooling Degree Days 12 2  
Month to date cooling degree days 26 16  
Year to date cooling degree days 55 58  
Growing Degree Days 26 (Base 50)    
Moisture  
Dew Point 60 °F    
Average Humidity 60    
Maximum Humidity 87    
Minimum Humidity 32    
Precipitation  
Precipitation 0.00 in 0.11 in 1.22 in (1901)
Month to date precipitation 0.03 0.89  
Year to date precipitation 13.63 14.00  
Snow  
Snow 0.00 in 0.00 in 0.00 in (2002)
Month to date snowfall 0.0 0.0  
Since 1 July snowfall 14.5 10.3  
Snow Depth 0.00 in    
Sea Level Pressure  
Sea Level Pressure 30.10 in    
Wind  
Wind Speed 4 mph (SW)    
Max Wind Speed 16 mph    
Max Gust Speed 22 mph    
Visibility 8 miles    
Events      
T = Trace of Precipitation, MM = Missing Value Source: NWS Daily Summary

Daily Weather History Graph

Daily Weather History Graph

Search for Another Location

Airport:

Trip Planner

Search our weather history database for the weather conditions in past years. The results will help you decide how hot, cold, wet, or windy it might be!

Date:

Astronomy

May. 08, 2014 Rise Set
Actual Time 6:06 AM EDT 8:05 PM EDT
Civil Twilight 5:37 AM EDT 8:34 PM EDT
Nautical Twilight 5:03 AM EDT 9:09 PM EDT
Astronomical Twilight 4:25 AM EDT 9:47 PM EDT
Moon 2:11 PM EDT (5/8) 2:29 AM EDT (5/8)
Length of Visible Light 14h 56m
Length of Day
13h 59m
Waxing Gibbous, 64% of the Moon is Illuminated
May 8
Waxing Gibbous
May 14
Full
May 21
Last Quarter
May 28
New
Jun 5
First Quarter

Hourly Weather History & Observations

Time (EDT) Temp. Heat Index Dew Point Humidity Pressure Visibility Wind Dir Wind Speed Gust Speed Precip Events Conditions
12:54 AM 62.1 °F - 54.0 °F 75% 30.14 in 10.0 mi East 3.5 mph - N/A   Overcast
1:54 AM 63.0 °F - 55.0 °F 75% 30.12 in 10.0 mi ESE 3.5 mph - N/A   Overcast
2:54 AM 64.0 °F - 57.0 °F 78% 30.12 in 10.0 mi Calm Calm - N/A   Overcast
3:54 AM 63.0 °F - 57.0 °F 81% 30.11 in 10.0 mi Calm Calm - N/A   Mostly Cloudy
4:29 AM 62.6 °F - 57.2 °F 82% 30.10 in 10.0 mi Calm Calm - N/A   Overcast
4:54 AM 64.0 °F - 57.9 °F 80% 30.12 in 10.0 mi Calm Calm - N/A   Overcast
5:18 AM 64.4 °F - 59.0 °F 83% 30.11 in 9.0 mi Calm Calm - N/A   Overcast
5:54 AM 64.0 °F - 60.1 °F 87% 30.13 in 7.0 mi Calm Calm - N/A   Overcast
6:26 AM 64.4 °F - 60.8 °F 88% 30.13 in 2.0 mi Calm Calm - N/A   Overcast
6:32 AM 64.4 °F - 60.8 °F 88% 30.13 in 1.5 mi Calm Calm - N/A   Overcast
6:40 AM 64.4 °F - 60.8 °F 88% 30.14 in 1.0 mi Calm Calm - N/A   Overcast
6:54 AM 64.0 °F - 61.0 °F 90% 30.15 in 1.0 mi Calm Calm - N/A   Overcast
7:54 AM 66.0 °F - 62.1 °F 87% 30.15 in 2.0 mi Calm Calm - N/A   Overcast
8:04 AM 66.2 °F - 62.6 °F 88% 30.14 in 3.0 mi WSW 4.6 mph - N/A   Overcast
8:54 AM 69.1 °F - 64.0 °F 84% 30.15 in 3.0 mi Calm Calm - N/A   Haze
9:54 AM 72.0 °F - 64.0 °F 76% 30.15 in 4.0 mi SW 4.6 mph - N/A   Haze
10:54 AM 75.9 °F - 64.9 °F 69% 30.14 in 5.0 mi Variable 4.6 mph - N/A   Haze
11:54 AM 81.0 °F 82.5 °F 64.0 °F 56% 30.12 in 7.0 mi West 5.8 mph - N/A   Scattered Clouds
12:54 PM 84.0 °F 84.9 °F 63.0 °F 49% 30.11 in 9.0 mi SW 8.1 mph - N/A   Partly Cloudy
1:54 PM 88.0 °F 87.9 °F 61.0 °F 40% 30.09 in 10.0 mi Variable 3.5 mph - N/A   Partly Cloudy
2:54 PM 89.1 °F 88.8 °F 60.1 °F 38% 30.07 in 10.0 mi West 6.9 mph - N/A   Scattered Clouds
3:54 PM 89.1 °F 89.0 °F 61.0 °F 39% 30.04 in 10.0 mi SW 10.4 mph - N/A   Mostly Cloudy
4:54 PM 90.0 °F 87.9 °F 55.0 °F 30% 30.04 in 10.0 mi SW 11.5 mph - N/A   Mostly Cloudy
5:54 PM 90.0 °F 88.1 °F 55.9 °F 31% 30.04 in 10.0 mi WSW 12.7 mph - N/A   Scattered Clouds
6:54 PM 88.0 °F 86.1 °F 55.0 °F 32% 30.04 in 10.0 mi WSW 12.7 mph - N/A   Mostly Cloudy
7:54 PM 80.1 °F 80.9 °F 60.1 °F 50% 30.05 in 10.0 mi South 6.9 mph - N/A   Scattered Clouds
8:54 PM 78.1 °F - 60.1 °F 54% 30.06 in 10.0 mi South 3.5 mph - N/A   Scattered Clouds
9:54 PM 75.0 °F - 60.1 °F 60% 30.07 in 10.0 mi South 3.5 mph - N/A   Scattered Clouds
10:54 PM 73.0 °F - 60.1 °F 64% 30.07 in 10.0 mi SSW 4.6 mph - N/A   Partly Cloudy
11:54 PM 72.0 °F - 60.1 °F 66% 30.08 in 9.0 mi Calm Calm - N/A   Clear